Flag for U.S.A. Weather past 2 weeks in St. George, Utah, U.S.A.

55 °F

Broken clouds.

Feels Like: 51 °F
Forecast: 35 / 56 °F
Wind: 20 mph from West

Location: Saint George

Current Time: Nov 25, 2015 at 2:01:16 PM

Latest Report: Nov 25, 2015 at 1:35 PM

Visibility: 10 mi

Pressure: 29.69 "Hg (26.85 "Hg at 842m altitude)

Humidity: 31%

Dew point: 25 °F

Location of St. GeorgeLocation

Historic Weather in St. George — Graph


St. George temperature yesterday

Maximum temperature yesterday: 68 °F (at 3:15 PM)
Minimum temperature yesterday: 32 °F (at 6:35 AM)
Average temperature yesterday: 48 °F

Past Weeks' High & Low Weather Summary

High68 °F (Nov 24, 3:15 PM)81% (Nov 16, 5:15 AM)30.40 "Hg (Nov 16, 5:15 AM)
Low28 °F (Nov 23, 7:15 AM)19% (Nov 13, 4:55 PM)29.59 "Hg (Nov 16, 4:55 AM)
Average46 °F43%30.09 "Hg
* Reported Nov 10 12:15 PM — Nov 25 12:55 PM, St. George, Weather by CustomWeather, © 2015

Note: Actual official high and low records may vary slightly from our data, if they occured in-between our weather recording intervals... More about our weather records


St. George weather history for previous 24 hours

Time TempWeatherWind HumidityBarometerVisibility
12:55 PM
Wed, Nov 25
55 °FScattered clouds.30 mph33%29.66 "Hg10 mi
12:35 PM57 °FScattered clouds.31 mph33%29.65 "Hg10 mi
12:15 PM59 °FPartly sunny.30 mph31%29.66 "Hg8 mi
11:55 AM59 °FBroken clouds.26 mph31%29.66 "Hg10 mi
11:35 AM59 °FScattered clouds.26 mph31%29.66 "Hg10 mi
11:15 AM59 °FSunny.31 mph31%29.67 "Hg8 mi
10:55 AM57 °FSunny.20 mph33%29.67 "Hg10 mi
10:35 AM57 °FSunny.23 mph33%29.68 "Hg10 mi
10:15 AM57 °FSunny.20 mph31%29.67 "Hg10 mi
9:55 AM55 °FSunny.17 mph33%29.67 "Hg10 mi
9:35 AM55 °FSunny.13 mph33%29.68 "Hg10 mi
9:15 AM55 °FSunny.12 mph33%29.68 "Hg10 mi
8:55 AM55 °FSunny.12 mph31%29.68 "Hg10 mi
8:35 AM52 °FSunny.9 mph38%29.68 "Hg10 mi
8:15 AM48 °FSunny.5 mph40%29.67 "Hg10 mi
7:55 AM52 °FSunny.7 mph35%29.67 "Hg10 mi
7:35 AM52 °FSunny.6 mph35%29.66 "Hg10 mi
7:15 AM52 °FClear.3 mph35%29.66 "Hg10 mi
6:55 AM54 °FClear.14 mph33%29.65 "Hg10 mi
6:35 AM50 °FClear.15 mph35%29.64 "Hg10 mi
6:15 AM48 °FClear.14 mph34%29.64 "Hg10 mi
5:55 AM50 °FClear.10 mph32%29.65 "Hg10 mi
5:35 AM50 °FClear.14 mph32%29.65 "Hg10 mi
5:15 AM50 °FClear.13 mph32%29.65 "Hg10 mi
4:55 AM52 °FClear.13 mph30%29.65 "Hg10 mi
4:35 AM52 °FClear.13 mph30%29.65 "Hg10 mi
4:15 AM52 °FClear.10 mph30%29.66 "Hg10 mi
3:55 AM52 °FClear.9 mph30%29.66 "Hg10 mi
3:35 AM52 °FClear.9 mph30%29.66 "Hg10 mi
3:15 AM54 °FClear.9 mph28%29.68 "Hg10 mi
2:55 AM54 °FClear.8 mph28%29.68 "Hg10 mi
2:35 AM55 °FClear.13 mph26%29.68 "Hg10 mi
2:15 AM54 °FClear.9 mph28%29.69 "Hg10 mi
1:55 AM52 °FClear.9 mph30%29.69 "Hg10 mi
1:35 AM54 °FClear.10 mph26%29.70 "Hg10 mi
1:15 AM54 °FClear.13 mph26%29.70 "Hg10 mi
12:55 AM54 °FClear.14 mph26%29.70 "Hg10 mi
12:15 AM55 °FClear.14 mph24%29.71 "Hg10 mi
11:55 PM
Tue, Nov 24
55 °FClear.15 mph24%29.71 "Hg10 mi
11:15 PM55 °FClear.13 mph24%29.73 "Hg10 mi
10:55 PM54 °FClear.15 mph26%29.73 "Hg10 mi
10:15 PM55 °FClear.17 mph24%29.73 "Hg10 mi
9:55 PM55 °FClear.14 mph24%29.73 "Hg10 mi
9:35 PM55 °FClear.14 mph24%29.73 "Hg10 mi
8:55 PM57 °FClear.16 mph23%29.72 "Hg10 mi
8:35 PM57 °FClear.15 mph23%29.72 "Hg10 mi
8:15 PM57 °FClear.13 mph23%29.72 "Hg10 mi
7:55 PM57 °FClear.15 mph23%29.72 "Hg10 mi
7:35 PM57 °FClear.14 mph23%29.73 "Hg10 mi
6:55 PM61 °FClear.10 mph20%29.73 "Hg10 mi
6:35 PM63 °FClear.12 mph20%29.74 "Hg10 mi
6:15 PM63 °FClear.9 mph22%29.74 "Hg10 mi
4:55 PM64 °FSunny.15 mph22%29.75 "Hg10 mi
4:35 PM64 °FSunny.14 mph21%29.75 "Hg10 mi
4:15 PM66 °FSunny.18 mph21%29.75 "Hg10 mi
3:55 PM68 °FSunny.16 mph20%29.75 "Hg10 mi
3:15 PM68 °FSunny.15 mph20%29.77 "Hg10 mi
2:55 PM66 °FSunny.3 mph22%29.78 "Hg10 mi
2:35 PM63 °FSunny.3 mph25%29.80 "Hg10 mi
Weather by CustomWeather, © 2015

See weather overviewHow to use our weather pages